+03,Max TemperatureF,Mean TemperatureF,Min TemperatureF,Max Dew PointF,MeanDew PointF,Min DewpointF,Max Humidity, Mean Humidity, Min Humidity, Max Sea Level PressureIn, Mean Sea Level PressureIn, Min Sea Level PressureIn, Max VisibilityMiles, Mean VisibilityMiles, Min VisibilityMiles, Max Wind SpeedMPH, Mean Wind SpeedMPH, Max Gust SpeedMPH,PrecipitationIn, CloudCover, Events, WindDirDegrees
2011-10-1,106,92,77,82,76,55,100,77,19,29.83,29.78,29.71,6,4,0,16,3,,0.00,0,Fog,222
2011-10-2,105,92,78,77,67,52,83,51,17,29.80,29.76,29.73,6,6,6,18,8,,0.00,0,,318
2011-10-3,105,94,82,76,66,44,78,49,13,29.81,29.77,29.74,6,6,6,22,16,30,0.00,0,,336
2011-10-4,101,92,82,73,66,55,71,48,21,29.79,29.75,29.72,6,6,5,30,21,40,0.00,0,,331
2011-10-5,96,87,76,68,62,55,64,46,25,29.86,29.80,29.73,6,6,6,28,16,33,0.00,0,,338
2011-10-6,96,84,71,63,60,55,70,47,26,29.93,29.88,29.84,6,6,6,20,9,25,0.00,0,,325
2011-10-7,94,82,70,67,60,28,71,49,10,29.94,29.88,29.83,6,6,6,14,7,21,0.00,0,,312
2011-10-8,93,82,70,71,63,57,70,53,29,29.93,29.88,29.83,6,6,6,14,5,,0.00,0,,6
2011-10-9,95,83,71,70,66,55,81,58,26,29.96,29.90,29.86,6,6,6,10,3,,0.00,0,,113
2011-10-10,98,86,73,72,63,48,80,50,18,29.92,29.86,29.81,6,6,6,13,4,,0.00,0,,139
2011-10-11,94,85,76,75,70,63,76,60,35,29.93,29.87,29.83,6,6,6,12,7,,0.00,0,,57
2011-10-12,95,88,81,76,73,68,80,63,41,29.93,29.88,29.83,6,6,6,16,7,,0.00,0,,52
2011-10-13,95,87,78,77,72,68,84,65,44,29.91,29.87,29.82,6,6,1,23,9,38,0.03,1,Rain-Thunderstorm,12
2011-10-14,97,86,76,78,72,61,99,65,30,29.97,29.92,29.88,6,6,6,9,5,,0.00,0,,8
2011-10-15,97,86,74,76,69,57,95,62,25,29.96,29.90,29.85,6,6,4,14,7,,0.00,0,,334
2011-10-16,99,86,73,77,69,53,100,72,21,29.92,29.87,29.82,6,4,0,9,5,,0.00,0,Fog,299
2011-10-17,100,86,72,77,65,44,100,64,15,29.91,29.86,29.82,6,5,0,13,7,,0.00,0,Fog,315
2011-10-18,100,86,72,72,62,46,79,51,16,29.96,29.90,29.86,6,6,6,14,7,,0.00,0,,350
2011-10-19,99,84,70,75,60,35,97,56,10,29.92,29.86,29.82,6,6,6,13,6,17,0.00,0,,305
2011-10-20,100,85,70,74,55,37,84,44,11,29.85,29.81,29.77,6,6,6,18,10,22,0.00,0,,301
2011-10-21,91,83,75,72,63,57,82,55,34,29.91,29.87,29.83,6,6,6,26,17,33,0.00,0,,330
2011-10-22,85,76,66,59,54,47,59,46,28,29.92,29.89,29.86,6,6,6,26,17,31,0.00,0,,323
2011-10-23,90,78,65,63,58,50,64,50,29,29.97,29.92,29.88,6,6,6,20,10,26,0.00,0,,325
2011-10-24,91,80,70,70,66,62,77,61,39,30.00,29.95,29.90,6,6,6,12,7,,0.00,0,,357
2011-10-25,91,80,69,70,61,49,79,54,24,29.99,29.92,29.87,6,6,6,10,3,,0.00,0,,291
2011-10-26,92,80,68,70,65,56,84,60,29,29.95,29.90,29.86,6,6,6,14,4,,0.00,0,,97
2011-10-27,94,84,73,73,65,51,75,56,24,29.99,29.92,29.88,6,6,6,14,4,,0.00,0,,125
2011-10-28,95,84,72,72,63,49,82,57,21,29.98,29.91,29.86,6,6,6,10,4,,0.00,0,,130
2011-10-29,91,80,68,69,63,53,85,58,27,29.92,29.86,29.81,6,6,6,14,5,,0.00,0,,129
2011-10-30,92,80,69,67,62,51,74,54,24,29.88,29.82,29.78,6,6,6,12,4,,0.00,0,,125
2011-10-31,89,80,70,70,66,62,78,64,41,29.90,29.84,29.80,6,6,6,13,5,,0.00,0,,13